This is the latest recevied weather packets stored in our database for station/object KK6MIG-13. If no packets are shown the sender has not sent any weather packets the latest 1 day(s).
| Time | Temp. | Humidity | Pressure | Rain* | Wind** | Luminosity | Snow |
|---|---|---|---|---|---|---|---|
| 1777997273 | 12.22° C | 1% | 1014.2 hPa | 0 mm | 3.58 m/s, 300° | 130 W/m² | - |
| 1777997213 | 12.22° C | 1% | 1014.2 hPa | 0 mm | 3.13 m/s, 303° | 130 W/m² | - |
| 1777997153 | 12.22° C | 1% | 1014.2 hPa | 0 mm | 3.13 m/s, 284° | 130 W/m² | - |
| 1777997093 | 12.22° C | 1% | 1014.2 hPa | 0 mm | 3.13 m/s, 278° | 130 W/m² | - |
| 1777997033 | 12.22° C | 1% | 1014.2 hPa | 0 mm | 3.13 m/s, 277° | 128 W/m² | - |
| 1777996971 | 12.22° C | 1% | 1014.1 hPa | 0 mm | 3.13 m/s, 288° | 125 W/m² | - |
| 1777996910 | 12.22° C | 1% | 1014.1 hPa | 0 mm | 2.68 m/s, 288° | 130 W/m² | - |
| 1777996858 | 12.22° C | 1% | 1014.1 hPa | 0 mm | 2.68 m/s, 267° | 127 W/m² | - |
| 1777996855 | 12.22° C | 1% | 1014.1 hPa | 0 mm | 2.68 m/s, 285° | 128 W/m² | - |
| 1777996730 | 12.22° C | 1% | 1014.1 hPa | 0 mm | 2.68 m/s, 269° | 125 W/m² | - |
| 1777996679 | 12.22° C | 1% | 1014.1 hPa | 0 mm | 3.13 m/s, 298° | 109 W/m² | - |
| 1777996674 | 12.22° C | 1% | 1014.1 hPa | 0 mm | 3.13 m/s, 286° | 121 W/m² | - |
| 1777996544 | 12.22° C | 1% | 1014 hPa | 0 mm | 2.68 m/s, 273° | 104 W/m² | - |
| 1777996484 | 12.22° C | 1% | 1014.1 hPa | 0 mm | 2.68 m/s, 307° | 100 W/m² | - |
| 1777996424 | 12.22° C | 1% | 1014.1 hPa | 0 mm | 2.68 m/s, 279° | 100 W/m² | - |
| 1777996364 | 12.22° C | 1% | 1014.1 hPa | 0 mm | 2.68 m/s, 267° | 100 W/m² | - |
| 1777996304 | 12.22° C | 1% | 1014.1 hPa | 0 mm | 2.68 m/s, 279° | 97 W/m² | - |
| 1777996239 | 12.22° C | 1% | 1014.1 hPa | 0 mm | 2.24 m/s, 283° | 93 W/m² | - |
| 1777996178 | 12.22° C | 1% | 1014.1 hPa | 0 mm | 2.24 m/s, 273° | 93 W/m² | - |
| 1777996118 | 12.22° C | 1% | 1014 hPa | 0 mm | 1.79 m/s, 271° | 93 W/m² | - |
| 1777996058 | 12.22° C | 1% | 1014.1 hPa | 0 mm | 1.79 m/s, 300° | 93 W/m² | - |
| 1777995998 | 12.22° C | 1% | 1014 hPa | 0 mm | 2.24 m/s, 281° | 95 W/m² | - |
| 1777995941 | 12.22° C | 1% | 1014 hPa | 0 mm | 2.24 m/s, 278° | 98 W/m² | - |
| 1777995937 | 12.22° C | 1% | 1014 hPa | 0 mm | 2.24 m/s, 258° | 97 W/m² | - |
| 1777995812 | 12.22° C | 1% | 1014 hPa | 0 mm | 2.24 m/s, 275° | 100 W/m² | - |
* Rain latest hour (hover to see other rain measurements)
** Current wind speed in m/s (hover to see current wind gust speed)